Ravenna, OH

7:37 PM EST on January 21, 2017 (GMT -0500)
Ravenna

Weather History for KPOV - August, 2013

Change the Weather History Date:

Tuesday, August 20, 2013

  Actual Average (KCAK) Record (KCAK)
Temperature  
Mean Temperature 68 °F -  
Max Temperature 82 °F 78 °F 97 °F (1916)
Min Temperature 55 °F 60 °F 44 °F (1949)
Cooling Degree Days 4    
Growing Degree Days 18 (Base 50)    
Moisture  
Dew Point 59 °F    
Average Humidity 75    
Maximum Humidity 100    
Minimum Humidity 35    
Precipitation  
Precipitation 0.00 in - - ()
Sea Level Pressure  
Sea Level Pressure 30.17 in    
Wind  
Wind Speed 1 mph (WSW)    
Max Wind Speed 6 mph    
Max Gust Speed -    
Visibility 10 miles    
Events      
Averages and records for this station are not official NWS values.
T = Trace of Precipitation, MM = Missing Value Source: NWS Daily Summary

Daily Weather History Graph

Daily Weather History Graph

Search for Another Location

Airport or City:

Trip Planner

Search our weather history database for the weather conditions in past years. The results will help you decide how hot, cold, wet, or windy it might be!

Date:

Astronomy

Aug. 20, 2013 Rise Set
Actual Time 6:39 AM EDT 8:16 PM EDT
Civil Twilight 6:10 AM EDT 8:45 PM EDT
Nautical Twilight 5:35 AM EDT 9:20 PM EDT
Astronomical Twilight 4:57 AM EDT 9:57 PM EDT
Moon 7:46 PM EDT (8/20) 6:08 AM EDT (8/20)
Length of Visible Light 14h 34m
Length of Day
13h 36m
Full, 100% of the Moon is Illuminated
Aug 20
Full
Aug 20
Full
Aug 28
Last Quarter
Sep 5
New
Sep 12
First Quarter

Hourly Weather History & Observations

Time (EDT) Temp. Heat Index Dew Point Humidity Pressure Visibility Wind Dir Wind Speed Gust Speed Precip Events Conditions
12:13 AM - - - N/A% 30.13 in 10.0 mi Calm Calm - N/A   Clear
12:34 AM 57.7 °F - 57.7 °F 100% 30.14 in 10.0 mi Calm Calm - N/A   Clear
12:54 AM 57.2 °F - 57.2 °F 100% 30.14 in 10.0 mi Calm Calm - N/A   Clear
1:14 AM 57.2 °F - 57.4 °F 100% 30.13 in 7.0 mi Calm Calm - N/A   Clear
1:34 AM 56.3 °F - 56.3 °F 100% 30.13 in 7.0 mi Calm Calm - N/A   Clear
1:53 AM 56.3 °F - 56.5 °F 100% 30.13 in 7.0 mi Calm Calm - N/A   Clear
2:13 AM 55.9 °F - 55.9 °F 100% 30.12 in 5.0 mi Calm Calm - N/A   Clear
2:34 AM 57.4 °F - 57.4 °F 100% 30.12 in 10.0 mi Calm Calm - N/A   Clear
2:53 AM 57.7 °F - 57.9 °F 100% 30.13 in 10.0 mi Calm Calm - N/A   Clear
3:14 AM 57.9 °F - 57.9 °F 100% 30.13 in 10.0 mi Calm Calm - N/A   Clear
3:33 AM 57.7 °F - 57.7 °F 100% 30.13 in 10.0 mi Calm Calm - N/A   Clear
3:53 AM 59.5 °F - 59.7 °F 100% 30.13 in 10.0 mi Calm Calm - N/A   Unknown
4:13 AM - - - N/A% 30.13 in 10.0 mi Calm Calm - N/A   Unknown
4:34 AM 60.8 °F - 60.8 °F 100% 30.14 in 10.0 mi SW 3.5 mph - N/A   Unknown
4:53 AM 60.4 °F - 60.6 °F 100% 30.14 in 10.0 mi Calm Calm - N/A   Unknown
5:14 AM 61.5 °F - 61.5 °F 100% 30.15 in 10.0 mi SW 3.5 mph - N/A   Mostly Cloudy
5:33 AM 61.3 °F - 61.3 °F 100% 30.15 in 10.0 mi Calm Calm - N/A   Mostly Cloudy
5:54 AM 60.3 °F - 60.4 °F 100% 30.15 in 10.0 mi Calm Calm - N/A   Scattered Clouds
6:14 AM 57.4 °F - 57.6 °F 100% 30.15 in 7.0 mi Calm Calm - N/A   Scattered Clouds
6:33 AM 59.2 °F - 59.2 °F 100% 30.16 in 7.0 mi Calm Calm - N/A   Scattered Clouds
6:53 AM 59.0 °F - 59.2 °F 100% 30.17 in 3.0 mi Calm Calm - N/A   Scattered Clouds
7:14 AM 60.1 °F - 60.1 °F 100% 30.18 in 5.0 mi SW 3.5 mph - N/A   Scattered Clouds
7:34 AM 61.0 °F - 61.2 °F 100% 30.18 in 10.0 mi Calm Calm - N/A   Scattered Clouds
7:53 AM 61.7 °F - 61.9 °F 100% 30.18 in 7.0 mi Calm Calm - N/A   Clear
8:14 AM 63.9 °F - 64.0 °F 100% 30.18 in 7.0 mi Calm Calm - N/A   Clear
8:33 AM 66.0 °F - 62.2 °F 88% 30.18 in 10.0 mi Calm Calm - N/A   Clear
8:54 AM 67.5 °F - 62.4 °F 84% 30.19 in 10.0 mi Calm Calm - N/A   Clear
9:14 AM 68.5 °F - 62.2 °F 80% 30.19 in 10.0 mi WSW 5.8 mph - N/A   Clear
9:33 AM 69.3 °F - 61.9 °F 77% 30.20 in 10.0 mi West 4.6 mph - N/A   Clear
9:53 AM 70.9 °F - 62.1 °F 74% 30.20 in 10.0 mi WSW 3.5 mph - N/A   Scattered Clouds
10:14 AM 72.0 °F - 61.9 °F 70% 30.20 in 10.0 mi WSW 3.5 mph - N/A   Scattered Clouds
10:33 AM 73.0 °F - 62.2 °F 69% 30.21 in 10.0 mi WSW 3.5 mph - N/A   Clear
10:53 AM 74.3 °F - 62.8 °F 67% 30.21 in 10.0 mi Calm Calm - N/A   Scattered Clouds
11:14 AM 75.2 °F - 61.9 °F 63% 30.21 in 10.0 mi Calm Calm - N/A   Scattered Clouds
11:33 AM 77.0 °F - 61.2 °F 58% 30.21 in 10.0 mi NW 3.5 mph - N/A   Clear
11:54 AM 77.2 °F - 60.3 °F 56% 30.21 in 10.0 mi WSW 4.6 mph - N/A   Clear
12:14 PM 78.1 °F - 59.7 °F 53% 30.21 in 10.0 mi WSW 5.8 mph - N/A   Clear
12:33 PM 78.6 °F - 58.3 °F 50% 30.21 in 10.0 mi WSW 5.8 mph - N/A   Clear
12:54 PM 79.3 °F - 58.3 °F 48% 30.20 in 10.0 mi Calm Calm - N/A   Scattered Clouds
1:14 PM 79.2 °F - 56.5 °F 46% 30.21 in 10.0 mi West 5.8 mph - N/A   Mostly Cloudy
1:33 PM 80.1 °F 80.2 °F 55.6 °F 43% 30.20 in 10.0 mi SSW 3.5 mph - N/A   Mostly Cloudy
1:54 PM 79.0 °F - 55.8 °F 45% 30.19 in 10.0 mi Calm Calm - N/A   Mostly Cloudy
2:14 PM 81.0 °F 80.8 °F 55.9 °F 42% 30.19 in 10.0 mi SSW 4.6 mph - N/A   Scattered Clouds
2:33 PM 81.0 °F - 52.9 °F 38% 30.18 in 10.0 mi Calm Calm - N/A   Mostly Cloudy
2:54 PM 80.2 °F - 51.6 °F 37% 30.18 in 10.0 mi Calm Calm - N/A   Scattered Clouds
3:14 PM 81.3 °F 80.9 °F 54.9 °F 40% 30.18 in 10.0 mi WSW 5.8 mph - N/A   Scattered Clouds
3:33 PM 81.1 °F 80.7 °F 53.8 °F 39% 30.17 in 10.0 mi Calm Calm - N/A   Mostly Cloudy
3:53 PM 82.4 °F 82.0 °F 57.2 °F 42% 30.16 in 10.0 mi Calm Calm - N/A   Overcast
4:14 PM 82.0 °F 81.5 °F 55.2 °F 40% 30.16 in 10.0 mi Calm Calm - N/A   Scattered Clouds
4:33 PM 82.0 °F - 52.0 °F 35% 30.15 in 10.0 mi West 3.5 mph - N/A   Clear
4:53 PM 81.7 °F 81.3 °F 55.6 °F 41% 30.15 in 10.0 mi Calm Calm - N/A   Clear
5:14 PM 81.5 °F 81.1 °F 55.9 °F 41% 30.15 in 10.0 mi Calm Calm - N/A   Clear
5:34 PM 81.3 °F 80.8 °F 54.0 °F 39% 30.15 in 10.0 mi Calm Calm - N/A   Clear
5:53 PM 80.6 °F 80.6 °F 55.9 °F 43% 30.15 in 10.0 mi Calm Calm - N/A   Clear
6:13 PM 79.7 °F - 57.4 °F 46% 30.15 in 10.0 mi Calm Calm - N/A   Clear
6:33 PM 78.8 °F - 58.6 °F 50% 30.15 in 10.0 mi Calm Calm - N/A   Clear
6:54 PM 75.7 °F - 59.4 °F 57% 30.15 in 10.0 mi Calm Calm - N/A   Clear
7:14 PM 73.9 °F - 61.7 °F 65% 30.15 in 10.0 mi Calm Calm - N/A   Mostly Cloudy
7:33 PM 75.7 °F - 59.4 °F 57% 30.15 in 10.0 mi Calm Calm - N/A   Scattered Clouds
7:54 PM 74.8 °F - 59.7 °F 59% 30.15 in 10.0 mi North 3.5 mph - N/A   Scattered Clouds
8:14 PM 73.8 °F - 59.9 °F 62% 30.15 in 10.0 mi NNE 3.5 mph - N/A   Clear
8:33 PM 70.0 °F - 61.0 °F 73% 30.16 in 10.0 mi Calm Calm - N/A   Clear
8:54 PM 69.4 °F - 60.6 °F 73% 30.17 in 10.0 mi NE 4.6 mph - N/A   Scattered Clouds
9:14 PM 66.9 °F - 62.1 °F 84% 30.18 in 10.0 mi NE 5.8 mph - N/A   Scattered Clouds
9:33 PM 66.7 °F - 61.9 °F 84% 30.18 in 10.0 mi ENE 3.5 mph - N/A   Scattered Clouds
9:54 PM 65.3 °F - 61.3 °F 87% 30.18 in 10.0 mi Calm Calm - N/A   Clear
10:14 PM 65.3 °F - 63.0 °F 92% 30.19 in 10.0 mi Calm Calm - N/A   Clear
10:33 PM 64.2 °F - 62.4 °F 94% 30.19 in 10.0 mi Calm Calm - N/A   Clear
10:54 PM 64.2 °F - 62.1 °F 93% 30.19 in 10.0 mi Calm Calm - N/A   Clear
11:14 PM 63.0 °F - 63.0 °F 100% 30.18 in 10.0 mi Calm Calm - N/A   Clear
11:33 PM 62.1 °F - 62.1 °F 100% 30.19 in 10.0 mi Calm Calm - N/A   Clear
11:54 PM 62.4 °F - 62.6 °F 100% 30.19 in 10.0 mi Calm Calm - N/A   Clear